Weather History for Buffalo, WY

Change the Weather History Date:

Tuesday, December 18, 2012

  Actual Average Record
Temperature  
Mean Temperature 22 °F 25 °F  
Max Temperature 33 °F 36 °F 54 °F (2011)
Min Temperature 11 °F 15 °F -8 °F (2005)
Degree Days  
Heating Degree Days 43 40  
Month to date heating degree days 586 708  
Since 1 July heating degree days 2143 2542  
Moisture  
Dew Point 4 °F    
Average Humidity 49    
Maximum Humidity 78    
Minimum Humidity 20    
Precipitation  
Precipitation 0.00 in 0.01 in 0.02 in (1998)
Month to date precipitation 0.01 0.25  
Year to date precipitation 8.83 13.30  
Sea Level Pressure  
Sea Level Pressure 29.74 in    
Wind  
Wind Speed 9 mph (WNW)    
Max Wind Speed 24 mph    
Max Gust Speed 36 mph    
Visibility 10 miles    
Events      
T = Trace of Precipitation, MM = Missing Value Source: NWS Daily Summary

Daily Weather History Graph

Daily Weather History Graph

Search for Another Location

Airport:

Trip Planner

Search our weather history database for the weather conditions in past years. The results will help you decide how hot, cold, wet, or windy it might be!

Date:

Astronomy

Dec. 18, 2012 Rise Set
Actual Time 7:38 AM MST 4:29 PM MST
Civil Twilight 7:05 AM MST 5:02 PM MST
Nautical Twilight 6:28 AM MST 5:39 PM MST
Astronomical Twilight 5:52 AM MST 6:14 PM MST
Moon 11:07 AM MST (12/18) 11:12 PM MST (12/18)
Length of Visible Light 9h 57m
Length of Day
8h 50m
Waxing Crescent, 35% of the Moon is Illuminated
Dec 18
Waxing Crescent
Dec 19
First Quarter
Dec 28
Full
Jan 4
Last Quarter
Jan 11
New

Hourly Weather History & Observations

Time (MST) Temp. Windchill Dew Point Humidity Pressure Visibility Wind Dir Wind Speed Gust Speed Precip Events Conditions
12:53 AM 30.9 °F 17.5 °F 19.0 °F 61% 29.52 in 10.0 mi NNW 24.2 mph 35.7 mph N/A   Clear
1:53 AM 21.9 °F 15.7 °F 16.0 °F 78% 29.58 in 10.0 mi Variable 4.6 mph - N/A   Clear
2:53 AM 26.1 °F 17.6 °F 18.0 °F 71% 29.62 in 10.0 mi NNW 8.1 mph - N/A   Clear
3:53 AM 23.0 °F 15.8 °F 16.0 °F 74% 29.64 in 10.0 mi SSW 5.8 mph - N/A   Clear
4:53 AM 21.9 °F 15.7 °F 14.0 °F 72% 29.66 in 10.0 mi North 4.6 mph - N/A   Clear
5:53 AM 19.9 °F 8.6 °F 3.9 °F 50% 29.69 in 10.0 mi West 10.4 mph - N/A   Clear
6:53 AM 19.9 °F 11.1 °F 1.9 °F 46% 29.71 in 10.0 mi WSW 6.9 mph - N/A   Clear
7:53 AM 24.1 °F - -0.0 °F 35% 29.70 in 10.0 mi Calm Calm - N/A   Clear
8:53 AM 28.0 °F 24.2 °F 3.9 °F 36% 29.70 in 10.0 mi North 3.5 mph - N/A   Clear
9:53 AM 30.9 °F 20.2 °F -0.9 °F 26% 29.70 in 10.0 mi WNW 15.0 mph - N/A   Clear
10:53 AM 32.0 °F 19.8 °F -4.0 °F 21% 29.70 in 10.0 mi WNW 20.7 mph 27.6 mph N/A   Clear
11:53 AM 32.0 °F 19.2 °F -2.9 °F 22% 29.70 in 10.0 mi WNW 23.0 mph - N/A   Clear
12:53 PM 33.1 °F 21.5 °F -4.0 °F 20% 29.68 in 10.0 mi WNW 19.6 mph 24.2 mph N/A   Clear
1:53 PM 32.0 °F 20.8 °F -6.0 °F 19% 29.73 in 10.0 mi WNW 17.3 mph 24.2 mph N/A   Clear
2:53 PM 28.0 °F 15.3 °F 1.0 °F 31% 29.75 in 10.0 mi North 18.4 mph 25.3 mph N/A   Clear
3:53 PM 25.0 °F 17.1 °F 1.9 °F 37% 29.78 in 10.0 mi North 6.9 mph - N/A   Clear
4:53 PM 21.9 °F - 1.9 °F 42% 29.80 in 10.0 mi Calm Calm - N/A   Clear
5:53 PM 17.1 °F 10.0 °F 1.9 °F 52% 29.83 in 10.0 mi WSW 4.6 mph - N/A   Clear
6:53 PM 16.0 °F - 1.9 °F 54% 29.86 in 10.0 mi Calm Calm - N/A   Clear
7:53 PM 16.0 °F 10.4 °F 1.0 °F 52% 29.86 in 10.0 mi SW 3.5 mph - N/A   Clear
8:53 PM 18.0 °F - 1.0 °F 48% 29.86 in 10.0 mi Calm Calm - N/A   Clear
9:53 PM 12.0 °F 5.9 °F 1.0 °F 61% 29.87 in 10.0 mi WSW 3.5 mph - N/A   Clear
10:53 PM 12.0 °F -0.4 °F -0.0 °F 59% 29.88 in 10.0 mi WSW 9.2 mph - N/A   Clear
11:53 PM 15.1 °F 9.4 °F -2.0 °F 47% 29.86 in 10.0 mi West 3.5 mph - N/A   Clear